Location: Aranbee
(34.0885°N, 118.2342°W)
Time: 04:35:55
(UTC+00:00)

Courier 1B - Pass Details

Date: 29 November 2020
Orbit: 962 x 1209 km, 28.3° (Epoch: 17 January)

Event Time Altitude Azimuth Distance (km) Brightness Sun altitude
Exits shadow 12:17:54 16° 205° (SSW) 2,702 9.6 -28.7°
Drops below altitude 10° 12:21:41 10° 175° (S) 3,125 10.3 -28.0°
Sets 12:25:56 0° 155° (SSE) 4,097 11.2 -27.1°
